QPF
0.01 0.01 0.01 0.02 0.01 0.02 0.02 0.02 0.02 0.01 0.01 0.01 0.01 0.01 0.00 0.00 0.00 0.00 0.00 0.00 0.00 0.00 0.00 0.00 0.00 0.00 0.00 0.00 0.01 0.01 0.01 0.01 0.01 0.01 0.01 0.02 0.02 0.02 0.02 0.02 0.02 0.02 0.01 0.01
0.02 0.01 0.01 0.01 0.01 0.01 0.02 0.02 0.01 0.01 0.01 0.00 0.00 0.00 0.00 0.01 0.01 0.01 0.01 0.01 0.00 0.00 0.00 0.00 0.00 0.00 0.01 0.01 0.01 0.01 0.01 0.01 0.01 0.01 0.01 0.01 0.01 0.01 0.01 0.01 0.01 0.01 0.01 0.02
0.02 0.01 0.02 0.02 0.01 0.01 0.02 0.02 0.01 0.01 0.01 0.00 0.00 0.01 0.01 0.01 0.01 0.01 0.01 0.01 0.01 0.01 0.01 0.00 0.00 0.00 0.01 0.01 0.01 0.01 0.01 0.00 0.00 0.01 0.01 0.01 0.01 0.01 0.01 0.01 0.01 0.01 0.01 0.02
0.04 0.03 0.04 0.02 0.01 0.01 0.02 0.02 0.01 0.01 0.01 0.01 0.01 0.01 0.01 0.01 0.01 0.01 0.00 0.00 0.01 0.01 0.01 0.01 0.01 0.01 0.01 0.01 0.01 0.01 0.01 0.00 0.00 0.01 0.01 0.01 0.01 0.01 0.00 0.00 0.01 0.01 0.01 0.01
0.05 0.04 0.03 0.01 0.00 0.01 0.01 0.03 0.01 0.01 0.01 0.02 0.02 0.02 0.02 0.01 0.00 0.00 0.00 0.00 0.00 0.01 0.01 0.01 0.01 0.01 0.01 0.01 0.01 0.01 0.01 0.00 0.00 0.01 0.01 0.01 0.01 0.01 0.01 0.01 0.01 0.01 0.01 0.02
0.04 0.04 0.03 0.01 0.00 0.00 0.01 0.03 0.01 0.01 0.01 0.02 0.01 0.02 0.02 0.01 0.01 0.00 0.00 0.00 0.00 0.01 0.01 0.01 0.01 0.02 0.01 0.01 0.02 0.02 0.02 0.01 0.01 0.01 0.02 0.01 0.02 0.01 0.01 0.01 0.01 0.02 0.02 0.02
0.04 0.04 0.02 0.01 0.00 0.01 0.03 0.04 0.01 0.01 0.01 0.01 0.01 0.01 0.01 0.01 0.01 0.00 0.00 0.00 0.00 0.00 0.01 0.01 0.01 0.02 0.02 0.01 0.02 0.03 0.03 0.02 0.02 0.02 0.02 0.02 0.02 0.02 0.02 0.02 0.02 0.02 0.03 0.03
0.04 0.04 0.03 0.01 0.01 0.01 0.02 0.01 0.01 0.01 0.01 0.01 0.01 0.01 0.01 0.01 0.00 0.00 0.00 0.00 0.00 0.00 0.01 0.01 0.01 0.01 0.02 0.02 0.02 0.02 0.03 0.03 0.03 0.03 0.03 0.03 0.02 0.02 0.02 0.02 0.02 0.02 0.03 0.03
0.03 0.03 0.02 0.01 0.01 0.01 0.01 0.01 0.01 0.01 0.01 0.01 0.01 0.01 0.00 0.00 0.00 0.00 0.00 0.00 0.00 0.00 0.00 0.01 0.01 0.01 0.01 0.02 0.02 0.02 0.03 0.03 0.03 0.03 0.04 0.03 0.03 0.03 0.03 0.03 0.03 0.03 0.03 0.03
0.02 0.02 0.02 0.02 0.01 0.01 0.01 0.01 0.01 0.01 0.02 0.02 0.02 0.01 0.01 0.00 0.00 0.00 0.00 0.00 0.00 0.00 0.00 0.00 0.01 0.01 0.01 0.01 0.02 0.02 0.03 0.03 0.03 0.03 0.03 0.03 0.03 0.02 0.02 0.03 0.03 0.03 0.03 0.03
0.02 0.02 0.01 0.01 0.02 0.02 0.01 0.01 0.01 0.02 0.02 0.02 0.02 0.02 0.01 0.01 0.00 0.00 0.00 0.00 0.00 0.00 0.00 0.00 0.00 0.00 0.01 0.01 0.02 0.02 0.01 0.01 0.02 0.03 0.02 0.02 0.02 0.02 0.01 0.02 0.02 0.03 0.02 0.02
0.03 0.02 0.02 0.02 0.02 0.02 0.02 0.02 0.02 0.03 0.03 0.03 0.03 0.03 0.02 0.01 0.01 0.01 0.00 0.00 0.00 0.00 0.00 0.00 0.00 0.00 0.00 0.01 0.01 0.02 0.01 0.01 0.01 0.02 0.02 0.02 0.02 0.02 0.01 0.01 0.01 0.02 0.02 0.02
0.01 0.01 0.01 0.01 0.01 0.01 0.02 0.02 0.02 0.02 0.03 0.03 0.03 0.03 0.03 0.02 0.02 0.01 0.01 0.01 0.01 0.00 0.00 0.00 0.00 0.00 0.01 0.01 0.01 0.01 0.01 0.01 0.01 0.01 0.02 0.02 0.02 0.02 0.01 0.01 0.01 0.01 0.02 0.02
0.01 0.01 0.01 0.00 0.01 0.01 0.01 0.02 0.02 0.02 0.02 0.02 0.03 0.03 0.03 0.02 0.02 0.01 0.01 0.01 0.01 0.00 0.00 0.00 0.00 0.01 0.01 0.01 0.01 0.01 0.01 0.01 0.01 0.01 0.01 0.01 0.02 0.02 0.01 0.01 0.01 0.01 0.01 0.02
0.01 0.00 0.01 0.00 0.00 0.01 0.01 0.01 0.02 0.02 0.02 0.02 0.02 0.02 0.02 0.02 0.02 0.01 0.01 0.01 0.01 0.01 0.01 0.01 0.01 0.01 0.01 0.02 0.02 0.02 0.01 0.01 0.01 0.01 0.01 0.01 0.01 0.02 0.02 0.02 0.02 0.02 0.02 0.02
0.01 0.00 0.00 0.00 0.00 0.00 0.01 0.01 0.01 0.02 0.02 0.02 0.02 0.02 0.01 0.01 0.01 0.01 0.01 0.01 0.01 0.01 0.01 0.01 0.01 0.01 0.02 0.02 0.02 0.02 0.01 0.02 0.02 0.02 0.01 0.02 0.02 0.02 0.02 0.03 0.03 0.03 0.03 0.03
0.01 0.01 0.01 0.01 0.00 0.00 0.01 0.01 0.01 0.01 0.01 0.01 0.02 0.01 0.01 0.01 0.01 0.01 0.01 0.01 0.01 0.01 0.01 0.02 0.02 0.02 0.02 0.02 0.02 0.02 0.02 0.02 0.02 0.02 0.02 0.03 0.03 0.03 0.03 0.03 0.03 0.03 0.03 0.04
0.01 0.01 0.01 0.01 0.01 0.01 0.01 0.00 0.01 0.01 0.01 0.01 0.01 0.01 0.01 0.01 0.01 0.01 0.01 0.01 0.01 0.01 0.02 0.02 0.02 0.02 0.02 0.02 0.02 0.02 0.02 0.02 0.02 0.03 0.03 0.03 0.03 0.03 0.03 0.03 0.03 0.03 0.03 0.04
0.00 0.00 0.00 0.00 0.01 0.01 0.01 0.01 0.01 0.01 0.01 0.01 0.01 0.01 0.01 0.01 0.01 0.01 0.01 0.01 0.02 0.02 0.02 0.02 0.02 0.02 0.02 0.02 0.02 0.02 0.02 0.02 0.02 0.03 0.03 0.03 0.04 0.03 0.03 0.03 0.02 0.03 0.03 0.03
0.00 0.00 0.00 0.00 0.00 0.01 0.01 0.01 0.01 0.01 0.01 0.01 0.01 0.01 0.01 0.01 0.01 0.01 0.01 0.01 0.02 0.02 0.02 0.03 0.03 0.03 0.03 0.03 0.03 0.03 0.03 0.03 0.03 0.03 0.03 0.03 0.03 0.03 0.03 0.02 0.02 0.02 0.02 0.03
0.00 0.00 0.00 0.00 0.00 0.00 0.00 0.01 0.01 0.01 0.01 0.01 0.01 0.01 0.01 0.01 0.01 0.01 0.01 0.01 0.02 0.02 0.03 0.03 0.04 0.04 0.04 0.04 0.03 0.03 0.03 0.04 0.04 0.04 0.04 0.04 0.03 0.03 0.02 0.02 0.02 0.02 0.02 0.03
0.01 0.01 0.01 0.01 0.01 0.00 0.00 0.00 0.01 0.01 0.01 0.01 0.02 0.02 0.02 0.01 0.01 0.01 0.02 0.02 0.02 0.03 0.03 0.03 0.04 0.04 0.04 0.04 0.04 0.04 0.04 0.04 0.05 0.05 0.05 0.04 0.03 0.03 0.03 0.03 0.02 0.02 0.02 0.02
0.01 0.01 0.01 0.01 0.00 0.00 0.00 0.00 0.01 0.01 0.01 0.01 0.02 0.02 0.02 0.02 0.02 0.02 0.02 0.02 0.03 0.03 0.03 0.04 0.04 0.04 0.04 0.04 0.04 0.04 0.04 0.04 0.04 0.04 0.04 0.04 0.03 0.03 0.03 0.03 0.02 0.02 0.02 0.02
0.00 0.00 0.01 0.00 0.00 0.00 0.00 0.00 0.01 0.01 0.01 0.02 0.02 0.02 0.03 0.03 0.03 0.03 0.03 0.03 0.03 0.03 0.03 0.04 0.04 0.04 0.04 0.04 0.03 0.03 0.03 0.03 0.03 0.03 0.03 0.03 0.03 0.03 0.03 0.03 0.02 0.02 0.02 0.02
0.00 0.00 0.00 0.00 0.00 0.01 0.01 0.01 0.01 0.01 0.01 0.02 0.02 0.02 0.03 0.03 0.04 0.03 0.03 0.03 0.03 0.03 0.03 0.03 0.03 0.03 0.03 0.03 0.02 0.02 0.02 0.02 0.03 0.03 0.03 0.03 0.03 0.02 0.02 0.02 0.02 0.02 0.02 0.02
0.00 0.00 0.00 0.01 0.01 0.01 0.01 0.01 0.01 0.01 0.01 0.02 0.02 0.02 0.03 0.03 0.03 0.03 0.03 0.03 0.03 0.02 0.02 0.03 0.03 0.02 0.02 0.02 0.02 0.01 0.02 0.02 0.02 0.02 0.02 0.03 0.02 0.02 0.02 0.02 0.01 0.01 0.02 0.02
0.01 0.01 0.01 0.01 0.01 0.01 0.01 0.01 0.01 0.01 0.02 0.02 0.02 0.02 0.03 0.03 0.03 0.03 0.03 0.02 0.02 0.02 0.02 0.02 0.02 0.02 0.02 0.01 0.01 0.01 0.01 0.01 0.02 0.02 0.02 0.02 0.02 0.02 0.02 0.02 0.02 0.02 0.02 0.03
MSLP
1009.99 1009.78 1009.53 1009.23 1008.91 1008.58 1008.27 1008.01 1007.82 1007.74 1007.80 1007.99 1008.31 1008.73 1009.21 1009.68 1010.11 1010.42 1010.59 1010.60 1010.45 1010.17 1009.80 1009.39 1008.98 1008.61 1008.32 1008.10 1007.97 1007.90 1007.90 1007.95 1008.05 1008.21 1008.43 1008.73 1009.12 1009.59 1010.13 1010.74 1011.37 1012.00 1012.61 1013.17
1011.29 1011.09 1010.80 1010.43 1010.01 1009.58 1009.19 1008.87 1008.66 1008.59 1008.68 1008.93 1009.31 1009.78 1010.29 1010.78 1011.19 1011.47 1011.59 1011.54 1011.33 1011.00 1010.59 1010.13 1009.68 1009.27 1008.92 1008.64 1008.44 1008.29 1008.21 1008.17 1008.20 1008.29 1008.45 1008.71 1009.05 1009.49 1010.01 1010.58 1011.19 1011.80 1012.38 1012.92
1012.39 1012.22 1011.92 1011.51 1011.05 1010.57 1010.12 1009.77 1009.54 1009.48 1009.60 1009.87 1010.28 1010.77 1011.29 1011.77 1012.15 1012.39 1012.48 1012.39 1012.15 1011.79 1011.36 1010.89 1010.42 1009.98 1009.60 1009.28 1009.02 1008.82 1008.67 1008.58 1008.54 1008.58 1008.70 1008.92 1009.23 1009.63 1010.11 1010.64 1011.20 1011.76 1012.29 1012.78
1013.13 1013.00 1012.72 1012.32 1011.84 1011.35 1010.90 1010.55 1010.34 1010.30 1010.43 1010.72 1011.14 1011.63 1012.14 1012.59 1012.95 1013.17 1013.22 1013.12 1012.87 1012.51 1012.08 1011.62 1011.16 1010.72 1010.33 1009.98 1009.69 1009.44 1009.25 1009.11 1009.04 1009.04 1009.13 1009.32 1009.60 1009.97 1010.40 1010.88 1011.38 1011.86 1012.32 1012.72
1013.41 1013.31 1013.06 1012.70 1012.27 1011.83 1011.42 1011.12 1010.95 1010.94 1011.10 1011.41 1011.84 1012.32 1012.80 1013.23 1013.56 1013.76 1013.81 1013.70 1013.47 1013.14 1012.74 1012.31 1011.87 1011.45 1011.06 1010.70 1010.38 1010.11 1009.88 1009.71 1009.61 1009.59 1009.66 1009.83 1010.08 1010.42 1010.80 1011.22 1011.64 1012.04 1012.40 1012.70
1013.20 1013.12 1012.93 1012.64 1012.29 1011.94 1011.63 1011.42 1011.33 1011.39 1011.60 1011.93 1012.36 1012.83 1013.29 1013.70 1014.00 1014.19 1014.23 1014.15 1013.95 1013.67 1013.32 1012.93 1012.53 1012.14 1011.75 1011.39 1011.06 1010.76 1010.51 1010.32 1010.19 1010.16 1010.21 1010.36 1010.59 1010.89 1011.23 1011.58 1011.92 1012.22 1012.48 1012.68
1012.58 1012.52 1012.39 1012.19 1011.97 1011.75 1011.58 1011.50 1011.53 1011.69 1011.96 1012.32 1012.76 1013.21 1013.64 1014.02 1014.30 1014.47 1014.53 1014.48 1014.32 1014.09 1013.80 1013.47 1013.11 1012.75 1012.38 1012.02 1011.68 1011.36 1011.08 1010.87 1010.72 1010.67 1010.70 1010.83 1011.04 1011.30 1011.59 1011.87 1012.13 1012.34 1012.50 1012.59
1011.69 1011.65 1011.59 1011.51 1011.43 1011.38 1011.39 1011.47 1011.64 1011.91 1012.25 1012.65 1013.09 1013.52 1013.92 1014.26 1014.51 1014.68 1014.74 1014.71 1014.60 1014.42 1014.19 1013.92 1013.61 1013.28 1012.93 1012.57 1012.22 1011.88 1011.58 1011.34 1011.17 1011.09 1011.10 1011.20 1011.37 1011.59 1011.83 1012.05 1012.23 1012.36 1012.42 1012.43
1010.76 1010.74 1010.75 1010.80 1010.88 1011.01 1011.20 1011.46 1011.78 1012.15 1012.57 1013.01 1013.44 1013.84 1014.20 1014.49 1014.70 1014.84 1014.90 1014.89 1014.82 1014.69 1014.51 1014.29 1014.04 1013.74 1013.40 1013.04 1012.68 1012.32 1011.99 1011.71 1011.52 1011.40 1011.38 1011.45 1011.58 1011.75 1011.93 1012.09 1012.20 1012.26 1012.24 1012.18
1010.00 1010.01 1010.11 1010.28 1010.51 1010.82 1011.19 1011.60 1012.06 1012.53 1013.00 1013.45 1013.86 1014.22 1014.52 1014.75 1014.91 1015.01 1015.05 1015.04 1014.99 1014.90 1014.77 1014.59 1014.37 1014.10 1013.78 1013.43 1013.05 1012.67 1012.32 1012.01 1011.78 1011.63 1011.57 1011.59 1011.68 1011.80 1011.92 1012.02 1012.07 1012.05 1011.99 1011.87
1009.61 1009.67 1009.85 1010.13 1010.50 1010.95 1011.46 1012.00 1012.54 1013.08 1013.58 1014.01 1014.39 1014.68 1014.90 1015.05 1015.14 1015.18 1015.19 1015.16 1015.11 1015.04 1014.94 1014.79 1014.60 1014.36 1014.06 1013.71 1013.33 1012.94 1012.56 1012.23 1011.97 1011.79 1011.68 1011.66 1011.69 1011.76 1011.82 1011.86 1011.85 1011.79 1011.68 1011.53
1009.74 1009.86 1010.10 1010.46 1010.92 1011.47 1012.06 1012.66 1013.25 1013.80 1014.28 1014.67 1014.98 1015.18 1015.31 1015.37 1015.37 1015.34 1015.29 1015.23 1015.16 1015.09 1014.99 1014.87 1014.70 1014.47 1014.19 1013.86 1013.49 1013.10 1012.73 1012.38 1012.10 1011.89 1011.75 1011.68 1011.66 1011.67 1011.68 1011.67 1011.61 1011.50 1011.36 1011.19
1010.42 1010.58 1010.87 1011.27 1011.77 1012.34 1012.94 1013.54 1014.11 1014.61 1015.03 1015.35 1015.56 1015.66 1015.68 1015.64 1015.54 1015.43 1015.31 1015.20 1015.10 1015.00 1014.90 1014.78 1014.62 1014.42 1014.16 1013.85 1013.51 1013.14 1012.78 1012.45 1012.16 1011.94 1011.78 1011.67 1011.62 1011.58 1011.54 1011.47 1011.37 1011.24 1011.06 1010.88
1011.58 1011.78 1012.08 1012.47 1012.94 1013.46 1014.00 1014.52 1015.01 1015.42 1015.74 1015.95 1016.04 1016.04 1015.95 1015.79 1015.60 1015.40 1015.20 1015.03 1014.88 1014.75 1014.62 1014.49 1014.34 1014.16 1013.93 1013.66 1013.35 1013.03 1012.71 1012.41 1012.14 1011.92 1011.76 1011.64 1011.55 1011.48 1011.40 1011.30 1011.16 1011.00 1010.81 1010.62
1013.10 1013.32 1013.58 1013.90 1014.27 1014.68 1015.08 1015.48 1015.82 1016.10 1016.28 1016.37 1016.35 1016.23 1016.03 1015.78 1015.50 1015.21 1014.94 1014.70 1014.49 1014.31 1014.15 1014.01 1013.86 1013.69 1013.49 1013.27 1013.02 1012.75 1012.49 1012.24 1012.02 1011.84 1011.69 1011.57 1011.47 1011.37 1011.27 1011.14 1010.98 1010.79 1010.59 1010.39
1014.81 1014.99 1015.18 1015.38 1015.60 1015.83 1016.06 1016.27 1016.45 1016.56 1016.60 1016.56 1016.42 1016.21 1015.92 1015.59 1015.23 1014.86 1014.52 1014.21 1013.94 1013.71 1013.51 1013.34 1013.19 1013.03 1012.87 1012.70 1012.51 1012.32 1012.13 1011.96 1011.80 1011.66 1011.54 1011.44 1011.34 1011.24 1011.11 1010.96 1010.79 1010.59 1010.38 1010.18
1016.50 1016.62 1016.68 1016.73 1016.76 1016.78 1016.81 1016.82 1016.81 1016.76 1016.66 1016.50 1016.27 1015.97 1015.62 1015.22 1014.80 1014.38 1013.97 1013.60 1013.27 1012.99 1012.75 1012.56 1012.39 1012.25 1012.12 1012.00 1011.88 1011.77 1011.66 1011.56 1011.47 1011.39 1011.31 1011.24 1011.15 1011.05 1010.92 1010.76 1010.57 1010.37 1010.16 1009.97
1018.00 1018.01 1017.93 1017.79 1017.62 1017.44 1017.26 1017.08 1016.90 1016.70 1016.48 1016.23 1015.92 1015.57 1015.17 1014.73 1014.28 1013.81 1013.36 1012.94 1012.56 1012.22 1011.95 1011.72 1011.55 1011.41 1011.31 1011.23 1011.18 1011.14 1011.10 1011.08 1011.06 1011.03 1011.00 1010.95 1010.88 1010.78 1010.65 1010.50 1010.31 1010.11 1009.92 1009.74
1019.17 1019.05 1018.81 1018.49 1018.13 1017.75 1017.39 1017.05 1016.73 1016.43 1016.12 1015.80 1015.45 1015.07 1014.64 1014.19 1013.70 1013.21 1012.72 1012.26 1011.84 1011.46 1011.15 1010.90 1010.71 1010.58 1010.50 1010.46 1010.46 1010.47 1010.50 1010.54 1010.58 1010.60 1010.60 1010.58 1010.53 1010.44 1010.32 1010.17 1009.99 1009.81 1009.63 1009.47
1019.94 1019.67 1019.28 1018.80 1018.28 1017.76 1017.27 1016.81 1016.40 1016.01 1015.65 1015.30 1014.92 1014.52 1014.09 1013.62 1013.13 1012.61 1012.10 1011.60 1011.14 1010.73 1010.39 1010.11 1009.91 1009.78 1009.72 1009.71 1009.74 1009.81 1009.88 1009.97 1010.04 1010.10 1010.13 1010.13 1010.10 1010.02 1009.91 1009.78 1009.62 1009.46 1009.31 1009.18
1020.29 1019.89 1019.37 1018.77 1018.15 1017.53 1016.96 1016.44 1015.97 1015.55 1015.16 1014.78 1014.39 1013.98 1013.53 1013.05 1012.53 1011.99 1011.45 1010.92 1010.43 1009.99 1009.63 1009.34 1009.13 1009.00 1008.95 1008.97 1009.03 1009.12 1009.24 1009.35 1009.46 1009.54 1009.60 1009.62 1009.60 1009.54 1009.46 1009.35 1009.22 1009.10 1008.99 1008.90
1020.28 1019.77 1019.16 1018.49 1017.81 1017.15 1016.55 1016.00 1015.52 1015.08 1014.67 1014.27 1013.86 1013.42 1012.94 1012.42 1011.87 1011.30 1010.72 1010.16 1009.64 1009.18 1008.80 1008.50 1008.30 1008.18 1008.14 1008.18 1008.27 1008.39 1008.53 1008.68 1008.81 1008.92 1008.99 1009.04 1009.04 1009.02 1008.97 1008.90 1008.82 1008.75 1008.68 1008.64
1019.99 1019.40 1018.74 1018.04 1017.36 1016.70 1016.11 1015.56 1015.07 1014.62 1014.19 1013.75 1013.29 1012.80 1012.26 1011.68 1011.07 1010.45 1009.82 1009.22 1008.68 1008.20 1007.82 1007.52 1007.33 1007.23 1007.22 1007.29 1007.40 1007.56 1007.73 1007.90 1008.07 1008.21 1008.32 1008.40 1008.45 1008.47 1008.47 1008.46 1008.45 1008.43 1008.43 1008.44
1019.50 1018.87 1018.20 1017.53 1016.87 1016.25 1015.67 1015.14 1014.64 1014.16 1013.67 1013.17 1012.63 1012.04 1011.41 1010.74 1010.05 1009.35 1008.67 1008.03 1007.46 1006.98 1006.60 1006.32 1006.16 1006.10 1006.13 1006.23 1006.39 1006.59 1006.80 1007.02 1007.23 1007.41 1007.58 1007.71 1007.82 1007.91 1007.99 1008.06 1008.12 1008.18 1008.24 1008.31
1018.92 1018.28 1017.64 1017.00 1016.39 1015.81 1015.25 1014.72 1014.19 1013.64 1013.07 1012.46 1011.80 1011.08 1010.32 1009.54 1008.74 1007.95 1007.21 1006.54 1005.95 1005.48 1005.12 1004.88 1004.77 1004.76 1004.84 1005.01 1005.23 1005.48 1005.76 1006.03 1006.30 1006.56 1006.79 1007.01 1007.20 1007.38 1007.54 1007.70 1007.85 1007.99 1008.12 1008.25
1018.32 1017.71 1017.10 1016.51 1015.94 1015.38 1014.82 1014.25 1013.65 1013.01 1012.31 1011.55 1010.73 1009.86 1008.96 1008.04 1007.13 1006.26 1005.47 1004.77 1004.19 1003.74 1003.43 1003.26 1003.21 1003.27 1003.43 1003.67 1003.97 1004.30 1004.65 1005.00 1005.35 1005.69 1006.01 1006.32 1006.61 1006.89 1007.15 1007.40 1007.64 1007.86 1008.06 1008.25
1017.75 1017.17 1016.60 1016.04 1015.48 1014.91 1014.31 1013.66 1012.96 1012.18 1011.33 1010.40 1009.41 1008.38 1007.33 1006.29 1005.29 1004.36 1003.54 1002.85 1002.30 1001.91 1001.67 1001.58 1001.62 1001.78 1002.03 1002.36 1002.74 1003.15 1003.59 1004.02 1004.46 1004.89 1005.30 1005.70 1006.09 1006.47 1006.83 1007.17 1007.49 1007.78 1008.04 1008.26
Thickness
5431 5441 5446 5450 5453 5457 5457 5465 5468 5482 5485 5489 5490 5491 5492 5493 5494 5494 5494 5494 5494 5493 5493 5494 5494 5494 5494 5493 5493 5493 5492 5492 5491 5491 5491 5490 5490 5490 5490 5489 5489 5488 5487 5485
5420 5434 5438 5442 5451 5455 5458 5461 5464 5468 5472 5480 5481 5481 5480 5480 5482 5481 5480 5480 5479 5479 5479 5480 5480 5481 5481 5481 5481 5482 5482 5482 5482 5481 5481 5480 5479 5479 5479 5478 5477 5476 5476 5475
5410 5424 5425 5426 5442 5448 5452 5459 5461 5460 5463 5468 5467 5468 5467 5468 5467 5466 5465 5465 5464 5465 5465 5466 5466 5468 5469 5470 5471 5471 5471 5471 5471 5470 5470 5469 5468 5468 5467 5466 5466 5465 5465 5464
5397 5404 5400 5423 5440 5444 5444 5446 5451 5452 5454 5455 5455 5452 5452 5454 5453 5451 5452 5451 5450 5450 5451 5453 5454 5456 5457 5458 5459 5460 5459 5459 5459 5458 5458 5457 5457 5456 5455 5455 5455 5455 5455 5455
5386 5391 5405 5417 5424 5427 5427 5427 5436 5437 5439 5440 5441 5438 5435 5438 5439 5438 5438 5437 5437 5437 5439 5441 5442 5443 5445 5446 5447 5447 5447 5447 5447 5447 5446 5446 5445 5445 5445 5445 5446 5445 5445 5445
5380 5386 5393 5403 5414 5420 5419 5410 5423 5426 5426 5427 5429 5421 5420 5424 5425 5424 5425 5425 5425 5425 5426 5428 5429 5430 5431 5433 5433 5434 5435 5435 5436 5436 5436 5435 5435 5434 5435 5435 5435 5436 5436 5436
5370 5375 5383 5391 5402 5408 5395 5396 5408 5413 5414 5414 5414 5412 5411 5412 5412 5412 5411 5413 5413 5413 5413 5414 5416 5417 5418 5419 5420 5421 5423 5424 5425 5425 5425 5425 5425 5425 5424 5425 5425 5426 5426 5427
5365 5366 5368 5383 5388 5385 5385 5393 5398 5399 5400 5399 5400 5401 5401 5400 5399 5400 5399 5401 5401 5401 5401 5402 5403 5405 5405 5405 5407 5410 5411 5413 5414 5415 5416 5416 5415 5415 5415 5415 5416 5416 5417 5418
5357 5357 5365 5373 5373 5376 5380 5382 5384 5384 5386 5387 5388 5388 5388 5388 5387 5387 5388 5388 5389 5390 5390 5390 5391 5392 5392 5393 5396 5398 5399 5401 5403 5404 5405 5406 5405 5405 5406 5406 5406 5407 5408 5408
5351 5354 5358 5361 5363 5366 5370 5371 5373 5374 5375 5376 5376 5376 5376 5375 5375 5375 5376 5376 5377 5378 5378 5379 5380 5381 5381 5383 5385 5387 5388 5390 5392 5393 5395 5396 5397 5397 5397 5397 5397 5398 5399 5399
5340 5345 5349 5350 5350 5354 5356 5359 5361 5362 5363 5363 5364 5364 5364 5363 5363 5363 5364 5364 5365 5366 5367 5368 5370 5371 5372 5373 5375 5376 5378 5380 5381 5383 5384 5386 5387 5387 5388 5389 5388 5389 5390 5390
5328 5333 5335 5336 5339 5343 5344 5345 5346 5348 5350 5350 5351 5351 5351 5351 5351 5351 5352 5353 5353 5355 5356 5358 5359 5360 5362 5363 5365 5367 5369 5370 5371 5373 5374 5376 5377 5378 5379 5380 5382 5383 5383 5383
5321 5325 5327 5328 5329 5331 5331 5332 5334 5335 5336 5337 5338 5339 5340 5340 5340 5340 5341 5342 5342 5344 5345 5347 5348 5350 5352 5354 5356 5357 5359 5361 5362 5363 5365 5367 5368 5369 5371 5373 5374 5375 5376 5377
5312 5315 5317 5317 5316 5318 5319 5320 5322 5324 5325 5326 5326 5327 5328 5328 5329 5330 5330 5331 5333 5335 5336 5338 5339 5341 5343 5345 5347 5349 5351 5353 5354 5355 5357 5358 5359 5360 5361 5362 5364 5366 5368 5369
5302 5304 5305 5307 5307 5308 5309 5310 5311 5312 5313 5314 5314 5315 5315 5316 5317 5319 5320 5322 5324 5326 5327 5329 5330 5332 5334 5337 5339 5341 5343 5345 5346 5348 5350 5351 5352 5353 5353 5354 5355 5357 5359 5361
5293 5297 5298 5297 5298 5298 5298 5299 5299 5300 5301 5302 5303 5304 5305 5306 5308 5309 5311 5313 5315 5317 5318 5320 5322 5325 5327 5329 5331 5334 5336 5338 5340 5341 5342 5344 5345 5345 5346 5347 5348 5349 5351 5352
5282 5284 5284 5285 5286 5287 5287 5288 5289 5290 5291 5292 5294 5295 5296 5298 5300 5302 5304 5305 5307 5309 5311 5313 5316 5319 5321 5324 5325 5327 5329 5330 5332 5333 5335 5336 5337 5338 5339 5340 5341 5342 5343 5344
5272 5273 5274 5274 5275 5276 5278 5279 5280 5281 5282 5283 5285 5286 5287 5289 5290 5293 5295 5298 5300 5302 5304 5306 5309 5312 5315 5317 5319 5321 5322 5323 5324 5325 5327 5329 5330 5331 5332 5333 5334 5335 5335 5337
5264 5266 5266 5267 5267 5267 5268 5269 5271 5272 5273 5275 5276 5277 5278 5280 5282 5284 5287 5289 5291 5294 5296 5299 5304 5306 5308 5311 5314 5315 5316 5316 5318 5319 5320 5322 5323 5324 5325 5326 5327 5327 5328 5329
5257 5258 5258 5259 5260 5259 5260 5261 5262 5263 5264 5266 5267 5269 5270 5272 5274 5277 5279 5281 5284 5286 5289 5293 5296 5299 5301 5304 5307 5308 5309 5310 5312 5313 5314 5315 5316 5317 5318 5319 5320 5320 5321 5322
5249 5250 5251 5251 5252 5252 5253 5254 5254 5255 5257 5258 5259 5260 5261 5264 5266 5269 5272 5275 5278 5280 5283 5287 5289 5291 5294 5297 5300 5301 5302 5303 5304 5306 5307 5308 5309 5310 5311 5312 5313 5314 5316 5316
5241 5242 5242 5243 5243 5244 5245 5246 5247 5249 5250 5251 5252 5253 5255 5257 5260 5262 5266 5268 5271 5274 5277 5279 5282 5285 5289 5292 5293 5294 5295 5296 5297 5299 5300 5301 5302 5303 5304 5306 5307 5309 5310 5311
5234 5234 5235 5235 5235 5236 5238 5239 5240 5241 5243 5244 5245 5247 5249 5252 5254 5256 5260 5263 5265 5269 5271 5273 5277 5281 5284 5285 5286 5287 5288 5290 5291 5292 5294 5295 5296 5297 5299 5300 5302 5303 5305 5307
5227 5228 5228 5229 5230 5230 5231 5232 5234 5236 5237 5238 5240 5242 5244 5247 5249 5252 5254 5258 5261 5263 5265 5268 5272 5275 5277 5278 5279 5281 5282 5284 5285 5286 5288 5289 5291 5292 5294 5296 5298 5299 5301 5303
5222 5222 5223 5224 5225 5226 5227 5228 5229 5231 5233 5235 5236 5239 5241 5242 5244 5247 5249 5252 5256 5259 5261 5263 5267 5269 5270 5272 5273 5275 5277 5278 5280 5282 5283 5285 5287 5289 5291 5293 5294 5296 5298 5300
5217 5218 5219 5219 5220 5221 5223 5225 5226 5228 5229 5231 5233 5235 5237 5240 5242 5244 5246 5249 5251 5254 5256 5258 5260 5263 5264 5266 5268 5270 5272 5274 5275 5277 5279 5281 5284 5286 5288 5290 5292 5294 5296 5298
5214 5215 5216 5217 5218 5219 5220 5221 5223 5224 5226 5227 5229 5231 5234 5236 5239 5241 5243 5245 5247 5249 5252 5254 5256 5258 5260 5262 5264 5266 5268 5270 5272 5274 5276 5278 5281 5283 5285 5288 5290 5292 5294 5296